User: anonymous   Login
Location: Unspecified
(0.0000°N, 0.0000°E)
Time: 02:04:54
(UTC+00:00)
Language:

OBJECT AU - Orbit

View from above orbital plane
View from above orbital plane
View from above satellite
View from above satellite

Ground track
Ground track

The orbit is defined by the following mean orbital elements,

1 67290U          26145.45222970 +.00000000 +00000-0 +38553-3 0 00003
2 67290  97.3939 220.7786 0010832  80.4251 279.8210 15.24402668    09
Epoch (UTC): 25 May 2026 10:51:12
Eccentricity: 0.0010832
inclination: 97.3939°
perigee height: 485 km
apogee height: 500 km
right ascension of ascending node: 220.7786°
argument of perigee: 80.4251°
revolutions per day: 15.24402668
mean anomaly at epoch: 279.8210°

The dashed part of the orbit path shows where the satellite is in the earth's shadow,  

DLR